Toluca Jose Maria, Mexico

3:34 AM CDT on September 30, 2016 (GMT -0500)
Lic Adolfo Lopez Mateos International

Weather History for MMTO - July, 2013

Change the Weather History Date:

Wednesday, July 24, 2013

  Actual Average Record
Temperature  
Mean Temperature 58 °F -  
Max Temperature 69 °F 68 °F 75 °F (2015)
Min Temperature 48 °F 47 °F 41 °F (1999)
Degree Days  
Heating Degree Days 6    
Growing Degree Days 8 (Base 50)    
Moisture  
Dew Point 48 °F    
Average Humidity 72    
Maximum Humidity 93    
Minimum Humidity 40    
Precipitation  
Precipitation 0.00 in - - ()
Sea Level Pressure  
Sea Level Pressure 30.20 in    
Wind  
Wind Speed 6 mph ()    
Max Wind Speed 26 mph    
Max Gust Speed -    
Visibility 5.1 miles    
Events Rain , Thunderstorm    
Averages and records for this station are not official NWS values.
T = Trace of Precipitation, MM = Missing Value Source: Averaged Metar Reports

Daily Weather History Graph

Daily Weather History Graph

Search for Another Location

Airport or City:

Trip Planner

Search our weather history database for the weather conditions in past years. The results will help you decide how hot, cold, wet, or windy it might be!

Date:

Astronomy

Jul. 24, 2013 Rise Set
Actual Time 7:12 AM CDT 8:17 PM CDT
Civil Twilight 6:48 AM CDT 8:41 PM CDT
Nautical Twilight 6:20 AM CDT 9:08 PM CDT
Astronomical Twilight 5:51 AM CDT 9:37 PM CDT
Moon 9:55 PM CDT (7/24) 9:08 AM CDT (7/24)
Length of Visible Light 13h 52m
Length of Day
13h 05m
Waning Gibbous, 94% of the Moon is Illuminated
Jul 24
Waning Gibbous
Jul 29
Last Quarter
Aug 6
New
Aug 14
First Quarter
Aug 20
Full

Hourly Weather History & Observations

Time (CDT) Temp. Dew Point Humidity Pressure Visibility Wind Dir Wind Speed Gust Speed Precip Events Conditions
12:45 AM 55.4 °F 50.0 °F 82% 29.82 in 5.0 mi East 4.6 mph - N/A   Mostly Cloudy
1:45 AM 53.6 °F 50.0 °F 88% 30.41 in 5.0 mi Calm Calm - N/A   Scattered Clouds
2:45 AM 53.6 °F 50.0 °F 88% 30.38 in 5.0 mi Calm Calm - N/A   Scattered Clouds
3:45 AM 53.6 °F 48.2 °F 82% 29.75 in 5.0 mi South 6.9 mph - N/A   Scattered Clouds
4:45 AM 50.0 °F 46.4 °F 87% 30.37 in 5.0 mi East 10.4 mph - N/A   Scattered Clouds
5:45 AM 48.2 °F 46.4 °F 93% 30.38 in 7.0 mi ESE 3.5 mph - N/A   Scattered Clouds
6:45 AM 48.2 °F 44.6 °F 87% 29.86 in 5.0 mi Calm Calm - N/A   Scattered Clouds
7:44 AM 50.0 °F 46.4 °F 87% 30.40 in 5.0 mi Calm Calm - N/A   Mostly Cloudy
8:46 AM 55.4 °F 48.2 °F 77% 30.40 in 6.0 mi SE 6.9 mph - N/A   Mostly Cloudy
9:44 AM 60.8 °F 46.4 °F 59% 29.81 in 7.0 mi ESE 4.6 mph - N/A   Mostly Cloudy
10:45 AM 62.6 °F 46.4 °F 55% 30.40 in 7.0 mi SSE 6.9 mph - N/A   Scattered Clouds
11:47 AM 66.2 °F 48.2 °F 52% 30.40 in 7.0 mi SSE 8.1 mph - N/A   Scattered Clouds
12:41 PM 69.8 °F 48.2 °F 46% 29.75 in 7.0 mi East 5.8 mph - N/A   Scattered Clouds
1:41 PM 69.8 °F 44.6 °F 40% 30.37 in 7.0 mi NNE 8.1 mph - N/A   Mostly Cloudy
2:40 PM 66.2 °F 51.8 °F 60% 30.37 in 5.0 mi SSE 26.5 mph - N/A   Mostly Cloudy
3:49 PM 66.2 °F 48.2 °F 52% 29.75 in 5.0 mi South 17.3 mph - N/A   Mostly Cloudy
3:58 PM 64.4 °F 50.0 °F 59% 30.34 in 5.0 mi SE 25.3 mph - N/A   Overcast
4:44 PM 59.0 °F 48.2 °F 67% 30.32 in 6.0 mi SSE 5.8 mph - N/A Thunderstorm Thunderstorm
5:42 PM 59.0 °F 48.2 °F 67% 30.31 in 6.0 mi South 4.6 mph - N/A   Mostly Cloudy
6:43 PM 60.8 °F 50.0 °F 68% 29.83 in 6.0 mi NE 4.6 mph - N/A Thunderstorm Thunderstorm
7:40 PM 60.8 °F 48.2 °F 63% 30.33 in 5.0 mi NNE 3.5 mph - N/A Thunderstorm Thunderstorm
8:01 PM 57.2 °F 51.8 °F 82% 30.36 in 1.0 mi ENE 25.3 mph - N/A Rain , Thunderstorm Thunderstorms and Rain
8:41 PM 53.6 °F 48.2 °F 82% 30.37 in 2.0 mi West 5.8 mph - N/A Rain , Thunderstorm Thunderstorms and Rain
9:48 PM 53.6 °F 50.0 °F 88% 29.86 in 3.0 mi NNW 4.6 mph - N/A   Haze
10:48 PM 51.8 °F 48.2 °F 88% 30.41 in 3.0 mi SSE 5.8 mph - N/A   Haze
11:46 PM 53.6 °F 48.2 °F 82% 30.42 in 3.0 mi SSW 3.5 mph - N/A   Haze